Regional Weather Roundup
Issued by NWS

Home | Current Version | Previous Version | Text Only | Print | Product List | Glossary Off
Versions: 1 2 3 4 5 6 7 8 9 10 11 12 13 14 15 16 17 18 19 20 21 22 23 24 25 26 27 28 29 30 31 32 33 34 35 36 37 38 39 40 41 42 43 44 45 46 47 48 49 50

000
ASUS43 KFSD 121110
RWRSD

WEATHER ROUNDUP FOR SOUTH DAKOTA
NATIONAL WEATHER SERVICE SIOUX FALLS SD
500 AM CST TUE DEC 12 2017

NOTE: "FAIR" INDICATES FEW OR NO CLOUDS BELOW 12,000 FEET WITH NO
SIGNIFICANT WEATHER AND/OR OBSTRUCTIONS TO VISIBILITY.


SDZ001>005-009-010-012>017-121200-
NORTHWEST AND NORTH CENTRAL SOUTH DAKOTA

CITY           SKY/WX    TMP DP  RH WIND       PRES   REMARKS
BUFFALO          N/A     28  20  71 W9        30.13F WCI  19
FAITH            N/A     25  22  88 W7        30.22F WCI  17
MOBRIDGE       CLEAR     24  22  91 CALM      30.19F
$$

SDZ012>016-024>037-041>051-057-063-072>074-121200-
SOUTHWEST AND SOUTH CENTRAL SOUTH DAKOTA

CITY           SKY/WX    TMP DP  RH WIND       PRES   REMARKS
RAPID CTY ARPT CLOUDY    20  14  77 CALM      30.24F
PIERRE         CLOUDY    31  28  89 W10       30.25F WCI  22
CUSTER         CLOUDY    34   1  24 W9        30.24F WCI  27
ELLSWORTH AFB  CLOUDY    20  12  71 W6        30.22F WCI  13
PHILIP         CLOUDY    21  19  92 W7        30.28F WCI  12
PINE RIDGE     CLOUDY    17  14  88 W3        30.29F
SPEARFISH      FAIR      39   9  28 W12       30.24F
WINNER         CLOUDY    34  26  72 W10       30.28F WCI  26
$$

SDZ004>011-016>023-039-040-121200-
NORTHEAST SOUTH DAKOTA

CITY           SKY/WX    TMP DP  RH WIND       PRES   REMARKS
ABERDEEN       CLOUDY    22  20  92 SW8       30.24F WCI  12
WATERTOWN      CLOUDY    17  15  92 SW6       30.22F WCI   9
BROOKINGS      CLOUDY    11   8  88 CALM      30.26F
SISSETON         N/A     22  17  81 SW5       30.21F WCI  16
$$

SDZ017-020-022-023-036>040-048>070-121200-
SOUTHEAST SOUTH DAKOTA

CITY           SKY/WX    TMP DP  RH WIND       PRES   REMARKS
SIOUX FALLS    CLOUDY    13  10  88 W7        30.29S WCI   3
HURON          CLOUDY    22  19  89 SW5       30.28F WCI  16
CHAMBERLAIN    CLOUDY    29  29 100 CALM      30.27F
MITCHELL       CLOUDY    21  17  84 SW5       30.30F WCI  15
YANKTON        CLOUDY    15  12  88 NW5       30.32F WCI   8
$$

ABBREVIATIONS USED IN REMARKS
   TC - TEMPERATURE IN CELSIUS
  WCI - WIND CHILL INDEX
   HX - HEAT INDEX
  VSB - VISIBILITY




USA.gov is the U.S. government's official web portal to all federal, state and local government web resources and services.